Other Public Products
Issued by NWS Charleston, SC

Current Version | Previous Version | Graphics & Text | Print | Product List | Glossary On
Versions: 1 2 3 4 5 6 7 8 9 10 11 12 13 14 15 16 17 18 19 20 21 22 23 24 25 26 27 28 29 30 31 32 33 34 35 36 37 38 39 40 41 42 43 44 45 46 47 48 49 50
144 FPUS82 KCHS 270027 OPUCHS TEST...KCHS/KSAV Gateway Observations...TEST National Weather Service Charleston SC 800 PM EDT MON JUN 26 2017 NOTE: "fair" indicates few or no clouds below 12,000 feet with no significant weather and/or obstructions to visibility. SCZ050-WAZ558-NCZ071-TXZ119-213-PAZ071-DCZ001-FLZ074-172-MI076- NYZ176-178-MAZ016-IL014-TNZ027-NJZ106-GAZ044-MD014-270100- ...Gateway Observations for Charleston International... CITY SKY/WX TMP DP RH WIND PRES REMARKS Chas Airport PTCLDY 81 64 56 NE8 30.03R 6HR MIN TEMP: 81; 6HR MAX TEMP: 86; Seattle PTSUNNY 70 54 56 SW12 29.96F 6HR MIN TEMP: 64; 6HR MAX TEMP: 72; 6HR PCP: TRACE; Charlotte MOCLDY 79 56 45 SW5 30.04F 6HR MIN TEMP: 78; 6HR MAX TEMP: 84; Dallas DFW CLOUDY 85 69 58 E9 29.99F 6HR MIN TEMP: 82; 6HR MAX TEMP: 88; Dallas Love PTSUNNY 86 68 54 E9 30.00F 6HR MIN TEMP: 81; 6HR MAX TEMP: 88; Philladelphia PTCLDY 77 49 37 S8 29.99F 6HR MIN TEMP: 77; 6HR MAX TEMP: 82; Wash National PTCLDY 79 55 43 S13 29.99S 6HR MIN TEMP: 79; 6HR MAX TEMP: 84; Baltimore PTCLDY 77 49 37 SE5 29.98S 6HR MIN TEMP: 77; 6HR MAX TEMP: 82; Miami PTCLDY 84 74 71 SE9 30.00S HX 91 6HR MIN TEMP: 84; 6HR MAX TEMP: 92; Detroit PTSUNNY 68 42 38 NW14 29.96F 6HR MIN TEMP: 67; 6HR MAX TEMP: 73; 6HR PCP: TRACE; Newark PTCLDY 77 45 32 W14 29.97S 6HR MIN TEMP: 77; 6HR MAX TEMP: 82; Laguardia PTCLDY 74 60 61 S13 29.97S 6HR MIN TEMP: 74; 6HR MAX TEMP: 81; J F K PTCLDY 71 64 78 S18 29.99F 6HR MIN TEMP: 71; 6HR MAX TEMP: 77; Boston Logan PTCLDY 73 56 54 S12 29.94R 6HR MIN TEMP: 70; 6HR MAX TEMP: 80; Ft. Lauderdale PTCLDY 84 74 71 SE10 29.99S HX 91 6HR MIN TEMP: 84; 6HR MAX TEMP: 90; Chicago O`Hare PTSUNNY 67 43 41 NW21G26 30.04R 6HR MIN TEMP: 66; 6HR MAX TEMP: 75; Chicago Midway PTSUNNY 69 43 38 N21 30.04R 6HR MIN TEMP: 69; 6HR MAX TEMP: 74; Houston Bush CLOUDY 84 73 69 SE13 30.00R HX 90 6HR MIN TEMP: 81; 6HR MAX TEMP: 90; 6HR PCP: TRACE; Houston Hobby CLOUDY 82 73 74 E8 30.00R THUNDER 6HR MIN TEMP: 82; 6HR MAX TEMP: 90; Nashville MOSUNNY 79 49 34 N8 30.09S 6HR MIN TEMP: 78; 6HR MAX TEMP: 83; Atlanta PTCLDY 81 54 39 NW13 30.06R 6HR MIN TEMP: 81; 6HR MAX TEMP: 86; $$ GAZ044-118-TXZ119-213-NCZ071-DCZ001-MDZ014-506-PAZ021-071-NJZ106- NYZ176-178-MAZ106-OHZ011-021-055-MIZ076-KYZ091-ILZ014-INZ047- MNZ060-ONZ431-270100- ...Gateway Observations for Savannah International... CITY SKY/WX TMP DP RH WIND PRES REMARKS Savannah Arpt MOCLDY 81 71 71 E12 30.04R 6HR MIN TEMP: 81; 6HR MAX TEMP: 89; 6HR PCP: TRACE; Atlanta PTCLDY 81 54 39 NW13 30.06R 6HR MIN TEMP: 81; 6HR MAX TEMP: 86; Charlotte MOCLDY 79 56 45 SW5 30.04F 6HR MIN TEMP: 78; 6HR MAX TEMP: 84; Dallas DFW CLOUDY 85 69 58 E9 29.99F 6HR MIN TEMP: 82; 6HR MAX TEMP: 88; Houston Bush CLOUDY 84 73 69 SE13 30.00R HX 90 6HR MIN TEMP: 81; 6HR MAX TEMP: 90; 6HR PCP: TRACE; Wash National PTCLDY 79 55 43 S13 29.99S 6HR MIN TEMP: 79; 6HR MAX TEMP: 84; Wash Dulles PTCLDY 77 49 37 S6 29.99S 6HR MIN TEMP: 77; 6HR MAX TEMP: 81; Baltimore PTCLDY 77 49 37 SE5 29.98S 6HR MIN TEMP: 77; 6HR MAX TEMP: 82; Philadelphia PTCLDY 77 49 37 S8 29.99F 6HR MIN TEMP: 77; 6HR MAX TEMP: 82; Newark PTCLDY 77 45 32 W14 29.97S 6HR MIN TEMP: 77; 6HR MAX TEMP: 82; Laguardia PTCLDY 74 60 61 S13 29.97S 6HR MIN TEMP: 74; 6HR MAX TEMP: 81; J F K PTCLDY 71 64 78 S18 29.99F 6HR MIN TEMP: 71; 6HR MAX TEMP: 77; Boston PTCLDY 73 56 54 S12 29.94R 6HR MIN TEMP: 70; 6HR MAX TEMP: 80; Pittsburg CLOUDY 67 49 52 W6 30.02F 6HR MIN TEMP: 67; 6HR MAX TEMP: 73; Akron MOCLDY 65 51 60 SW10 30.02F 6HR MIN TEMP: 63; 6HR MAX TEMP: 74; 6HR PCP: 0.07; Cleveland CLOUDY 65 49 56 S8 30.02R 6HR MIN TEMP: 65; 6HR MAX TEMP: 74; 6HR PCP: TRACE; Cincinnati PTSUNNY 68 49 50 W8 30.08R 6HR MIN TEMP: 68; 6HR MAX TEMP: 75; Columbus CLOUDY 64 51 63 NW9 30.04S Detroit PTSUNNY 68 42 38 NW14 29.96F 6HR MIN TEMP: 67; 6HR MAX TEMP: 73; 6HR PCP: TRACE; Chicago O`Hare PTSUNNY 67 43 41 NW21G26 30.04R 6HR MIN TEMP: 66; 6HR MAX TEMP: 75; Minneapolis MOSUNNY 70 42 36 N6 30.10F 6HR MIN TEMP: 66; 6HR MAX TEMP: 73; Indianapolis PTSUNNY 69 47 45 W21 30.06S 6HR MIN TEMP: 69; 6HR MAX TEMP: 74; Toronto Canada MOCLDY 59 50 72 S10 29.93R $$

USA.gov is the U.S. government's official web portal to all federal, state and local government web resources and services.